Hauptseite
METAR-TAF:

METAR-TAF

Flughäfen :

Heeresflugplatz Celle

Celle, Deutschland

Breite: 52-36N, Länge: 010-01E, Höhe: 39 m

Beobachtung

Neuester Wetterbericht von vor 1 Stunde und 7 Minuten, um 03:20 UTC
Wind 13 kt aus West/Südwest
Temperatur 4°C
Luftfeuchtigkeit 87%
Luftdruck 1014 hPa
Sichtweite: 8000 m
Durchbrochene Bewölkung in der Höhe von 2000 ft
Leichtregen

METAR: ETHC 250320Z 24013KT 8000 -RA BKN020 04/02 Q1014 WHT

Zeit: 05:27 (04:27 UTC)


TAF: fehlend

Wetterbeobachtungen und Prognosen von mehr als 4000 Flughäfen (METAR und TAF Bericht).

Die verfügbaren Stationen werden durch gelbe und rote Markierungen auf der Karte dargestellt.

Führen Sie die Maus auf sie, um den Namen der Station zu sehen.

Darauf klicken, um die Beobachtung von Wetterbeobachtungen und Prognosen zu sehen.

Um die Karte zu ändern : klicken Sie auf den grünen Tasten mit einem schwarzen Kreuz Zum Vergrößern, auf den grünen Button mit einem Gedankenstrich zu verkleinern, oder auf die grünen Pfeile für benachbarte Karten.


METAR-TAF: